Fort Campbell, KY

1:08 PM CDT on June 22, 2017 (GMT -0500)
Campbell Army Air Field

Weather History for KHOP - November, 2012

Change the Weather History Date:

Friday, November 23, 2012

  Actual Average Record
Temperature  
Mean Temperature 46 °F -  
Max Temperature 57 °F 55 °F 73 °F (1998)
Min Temperature 33 °F 36 °F 20 °F (2008)
Degree Days  
Heating Degree Days 20    
Moisture  
Dew Point 38 °F    
Average Humidity 64    
Maximum Humidity 82    
Minimum Humidity 38    
Precipitation  
Precipitation 0.00 in - - ()
Sea Level Pressure  
Sea Level Pressure 30.16 in    
Wind  
Wind Speed 8 mph (West)    
Max Wind Speed 14 mph    
Max Gust Speed 22 mph    
Visibility 10 miles    
Events Rain    
Averages and records for this station are not official NWS values.
T = Trace of Precipitation, MM = Missing Value Source: NWS Daily Summary

Daily Weather History Graph

Daily Weather History Graph

Search for Another Location

Airport or City:

Trip Planner

Search our weather history database for the weather conditions in past years. The results will help you decide how hot, cold, wet, or windy it might be!

Date:

Astronomy

Nov. 23, 2012 Rise Set
Actual Time 6:36 AM CST 4:36 PM CST
Civil Twilight 6:08 AM CST 5:04 PM CST
Nautical Twilight 5:36 AM CST 5:36 PM CST
Astronomical Twilight 5:05 AM CST 6:06 PM CST
Moon 1:45 PM CST (11/23) 2:01 AM CST (11/23)
Length of Visible Light 10h 55m
Length of Day
9h 59m
Waxing Gibbous, 80% of the Moon is Illuminated
Nov 23
Waxing Gibbous
Nov 28
Full
Dec 6
Last Quarter
Dec 13
New
Dec 19
First Quarter

Hourly Weather History & Observations

Time (CST) Temp. Windchill Dew Point Humidity Pressure Visibility Wind Dir Wind Speed Gust Speed Precip Events Conditions
12:55 AM 48.9 °F - 38.5 °F 67% 30.10 in 10.0 mi SSW 6.9 mph - N/A   Mostly Cloudy
1:55 AM 51.3 °F - 40.6 °F 67% 30.10 in 10.0 mi SSW 5.8 mph - N/A   Mostly Cloudy
2:55 AM 56.7 °F - 40.8 °F 55% 30.09 in 10.0 mi SW 10.4 mph - N/A   Overcast
3:55 AM 56.7 °F - 41.4 °F 57% 30.09 in 10.0 mi SW 6.9 mph - N/A   Mostly Cloudy
4:30 AM 57.2 °F - 44.6 °F 63% 30.09 in 10.0 mi West 11.5 mph 20.7 mph N/A Rain Light Rain
4:45 AM 57.2 °F - 46.4 °F 67% 30.09 in 10.0 mi West 10.4 mph - N/A Rain Light Rain
4:50 AM 55.4 °F - 46.4 °F 72% 30.09 in 10.0 mi West 10.4 mph 17.3 mph N/A Rain Light Rain
4:55 AM 55.0 °F - 47.1 °F 75% 30.09 in 10.0 mi West 9.2 mph 17.3 mph N/A Rain Light Rain
5:00 AM 55.4 °F - 48.2 °F 77% 30.10 in 10.0 mi WSW 11.5 mph 17.3 mph N/A Rain Light Rain
5:10 AM 53.6 °F - 48.2 °F 82% 30.10 in 10.0 mi West 6.9 mph - N/A Rain Light Rain
5:36 AM 53.6 °F - 48.2 °F 82% 30.11 in 10.0 mi West 10.4 mph - N/A   Mostly Cloudy
5:55 AM 54.0 °F - 48.4 °F 81% 30.12 in 10.0 mi West 8.1 mph - N/A   Mostly Cloudy
6:01 AM 53.6 °F - 48.2 °F 82% 30.12 in 10.0 mi West 8.1 mph - N/A   Overcast
6:11 AM 53.6 °F - 48.2 °F 82% 30.12 in 10.0 mi West 8.1 mph - N/A   Overcast
6:16 AM 53.6 °F - 48.2 °F 82% 30.12 in 10.0 mi West 9.2 mph - N/A   Overcast
6:26 AM 53.6 °F - 48.2 °F 82% 30.12 in 10.0 mi West 9.2 mph - N/A   Overcast
6:31 AM 53.6 °F - 48.2 °F 82% 30.12 in 10.0 mi West 8.1 mph - N/A   Overcast
6:55 AM 53.8 °F - 47.7 °F 80% 30.14 in 10.0 mi West 9.2 mph - N/A   Mostly Cloudy
7:26 AM 53.6 °F - 46.4 °F 77% 30.16 in 10.0 mi WNW 10.4 mph - N/A   Unknown
7:55 AM 52.9 °F - 45.5 °F 76% 30.16 in 10.0 mi WNW 10.4 mph - N/A   Unknown
8:40 AM 50.0 °F - 35.6 °F 58% 30.20 in 10.0 mi WNW 6.9 mph 16.1 mph N/A   Mostly Cloudy
8:59 AM 51.6 °F - 36.0 °F 55% 30.20 in 10.0 mi Variable 5.8 mph - N/A   Mostly Cloudy
9:55 AM 52.5 °F - 35.1 °F 51% 30.21 in 10.0 mi NW 6.9 mph 19.6 mph N/A   Clear
10:55 AM 54.5 °F - 31.8 °F 42% 30.19 in 10.0 mi NW 13.8 mph 17.3 mph N/A   Clear
11:55 AM 55.0 °F - 30.0 °F 38% 30.18 in 10.0 mi NW 9.2 mph 19.6 mph N/A   Clear
12:55 PM 55.9 °F - 30.9 °F 39% 30.17 in 10.0 mi WNW 11.5 mph - N/A   Clear
1:55 PM 55.4 °F - 29.8 °F 38% 30.16 in 10.0 mi WNW 13.8 mph 21.9 mph N/A   Clear
2:55 PM 54.7 °F - 31.1 °F 41% 30.17 in 10.0 mi NW 10.4 mph 20.7 mph N/A   Clear
3:55 PM 51.1 °F - 33.8 °F 52% 30.19 in 10.0 mi NW 10.4 mph - N/A   Clear
4:55 PM 46.2 °F 43.3 °F 29.8 °F 53% 30.22 in 10.0 mi Variable 5.8 mph - N/A   Clear
5:55 PM 43.9 °F 38.8 °F 29.3 °F 57% 30.24 in 10.0 mi NW 9.2 mph - N/A   Clear
6:55 PM 42.3 °F 38.6 °F 28.8 °F 59% 30.26 in 10.0 mi Variable 5.8 mph - N/A   Clear
7:55 PM 39.6 °F - 28.4 °F 64% 30.27 in 10.0 mi Calm Calm - N/A   Clear
8:55 PM 37.6 °F - 26.1 °F 63% 30.29 in 10.0 mi Calm Calm - N/A   Clear
9:55 PM 36.3 °F 33.7 °F 22.5 °F 57% 30.30 in 10.0 mi Variable 3.5 mph - N/A   Clear
10:55 PM 34.2 °F - 21.7 °F 60% 30.31 in 10.0 mi Calm Calm - N/A   Clear
11:55 PM 33.3 °F 28.9 °F 21.0 °F 61% 30.30 in 10.0 mi Variable 4.6 mph - N/A   Clear